Location: Brachbach
(49.1847°N, 9.7240°E)
Time: 00:13:18
(UTC+00:00)

FENGYUN 3A - Pass Details

Date: 15 August 2024
Orbit: 822 x 834 km, 98.6° (Epoch: 07 September)

Event Time Altitude Azimuth Distance (km) Brightness Sun altitude
Rises 01:35:24 0° 16° (NNE) 3,394 8.2 -20.7°
Reaches altitude 10° 01:37:48 10° 19° (NNE) 2,455 7.2 -20.5°
Maximum altitude 01:43:14 69° 103° (ESE) 894 3.8 -19.9°
Enters shadow 01:45:59 30° 179° (S) 1,466 4.5 -19.7°
